Hourly Data Report for April 14, 2021

OTTAWA INTL A
ONTARIO
Current Station Operator: NAVCAN

45°19'00.000" N
75°40'00.000" W
114.90 m
6106001
71628
YOW

Download Data

Hourly Data (April 2021)
Hourly Data Report for April 14, 2021
TIME
LST
Temp Definition
°C
Dew Point Definition
°C
Rel Hum Definition
%
Precip. Amount Definition
mm

Wind Dir Definition
10's deg

Wind Spd Definition
km/h
Visibility Definition
km
Stn Press Definition
kPa
Hmdx Definition


Wind Chill Definition


Weather Definition


00:00 10.6 5.9 72   14 4 24.1 100.37     LegendNANA
01:00 10.8 5.6 70   20 8 24.1 100.35     Cloudy
02:00 10.7 5.9 72   24 7 24.1 100.36     LegendNANA
03:00 10.9 5.7 70   25 7 24.1 100.35     LegendNANA
04:00 10.6 6.5 75   34 10 24.1 100.33     Mostly Cloudy
05:00 9.6 5.5 76   4 11 24.1 100.36     LegendNANA
06:00 8.5 4.5 76   4 15 24.1 100.39     LegendNANA
07:00 9.7 3.1 63   7 14 24.1 100.39     Mainly Clear
08:00 11.6 3.6 58   7 11 24.1 100.35     LegendNANA
09:00 12.2 4.6 60   4 9 24.1 100.30     LegendNANA
10:00 13.9 5.3 56   2 7 24.1 100.25     Mainly Clear
11:00 13.9 5.6 57   3 5 24.1 100.19     LegendNANA
12:00 15.5 6.5 55   4 4 24.1 100.07     LegendNANA
13:00 10.9 6.5 74   12 34 24.1 100.07     Rain Showers
14:00 11.8 7.2 73   33 19 24.1 100.02     Rain Showers
15:00 15.1 6.8 57   15 3 24.1 99.90     LegendNANA
16:00 14.3 6.8 60   22 3 24.1 99.86     Mostly Cloudy
17:00 14.6 6.6 59   17 6 24.1 99.82     LegendNANA
18:00 14.4 6.2 58   15 7 24.1 99.78     LegendNANA
19:00 11.9 6.9 71   9 5 24.1 99.75     Mostly Cloudy
20:00 11.7 5.6 66   12 8 24.1 99.75     LegendNANA
21:00 10.0 5.6 74   11 10 24.1 99.72     LegendNANA
22:00 8.9 5.0 76   12 10 24.1 99.66     Mainly Clear
23:00 8.7 5.1 78   8 5 24.1 99.61     LegendNANA

Notes on Data Quality.

Legend

  • E = Estimated
  • M = Missing
  • NA = Not Available*
  • [empty] = Indicates an unobserved value
Date modified: